Torna al catalogo

ARIANE 3 DEB *

LostHEO
NORAD 17253·DEBRIS·🇫🇷 France

Lanciato Mar 28, 1986 da Guiana Space Centre

Loading…

Prossimi Passaggi (prossime 24 ore)

TLE

ObsoletoSource: Space-Track

Epoca: Dec 3, 2022, 14:38 UTC

1 17253U 86026E   22337.61022025  .00008714  00000-0  99069-2 0  9990
2 17253   6.6504 320.5407 6503543 253.9020  29.7620  3.23309930310292

Traccia ARIANE 3 DEB * in tempo reale con AllMySat

Download on the App Store